GFA320 LTAI-OBBI

Flight info

Callsign GFA320
Flight time 3h 8m
Altitude 36000
Route TOMBI1K/18L TOMBI M855 MAROS SAFTA L324 LAKTO L560 SILKA J852 WEJ J874 MUSRI L604 KFA H732 LADNA LADNA1
Aircraft A320/M-V/N

Departure

Time 2026-05-06 14:37
Airport Antalya International Airport (LTAI)

Arrival

Time 2026-05-06 17:45
Airport Bahrain International Airport (OBBI)
Time Latitude Longitude Altitude Speed Heading
2026-05-06 14:13 36.89718 30.80069 180 ft 0 kts 30°
2026-05-06 14:16 36.89707 30.80061 180 ft 0 kts 30°
2026-05-06 14:28 36.89706 30.80060 180 ft 3 kts 30°
2026-05-06 14:28 36.89686 30.80046 180 ft 5 kts 30°
2026-05-06 14:28 36.89663 30.80029 180 ft 3 kts 30°
2026-05-06 14:28 36.89633 30.79999 180 ft 6 kts 48°
2026-05-06 14:29 36.89621 30.79974 180 ft 0 kts 90°
2026-05-06 14:31 36.89617 30.80039 180 ft 15 kts 99°
2026-05-06 14:32 36.89602 30.80185 179 ft 18 kts 96°
2026-05-06 14:32 36.89587 30.80350 178 ft 20 kts 97°
2026-05-06 14:32 36.89571 30.80526 177 ft 21 kts 95°
2026-05-06 14:32 36.89603 30.80686 176 ft 20 kts 28°
2026-05-06 14:33 36.89743 30.80711 177 ft 21 kts
2026-05-06 14:33 36.89890 30.80733 178 ft 22 kts
2026-05-06 14:33 36.90045 30.80754 179 ft 23 kts
2026-05-06 14:33 36.90207 30.80774 180 ft 24 kts
2026-05-06 14:34 36.90377 30.80797 180 ft 25 kts
2026-05-06 14:34 36.90553 30.80821 181 ft 26 kts
2026-05-06 14:34 36.90733 30.80846 182 ft 26 kts
2026-05-06 14:34 36.90918 30.80871 183 ft 27 kts
2026-05-06 14:35 36.91103 30.80912 201 ft 27 kts 34°
2026-05-06 14:35 36.91106 30.81099 201 ft 23 kts 135°
2026-05-06 14:35 36.91063 30.81121 193 ft 0 kts 167°
2026-05-06 14:35 36.91057 30.81123 195 ft 2 kts 169°
2026-05-06 14:36 36.90833 30.81101 183 ft 69 kts 185°
2026-05-06 14:36 36.90138 30.81004 179 ft 129 kts 187°
2026-05-06 14:36 36.89103 30.80869 279 ft 164 kts 184°
2026-05-06 14:36 36.87916 30.80757 674 ft 182 kts 181°
2026-05-06 14:37 36.86563 30.80729 1215 ft 202 kts 179°
2026-05-06 14:37 36.85147 30.80840 2144 ft 207 kts 172°
2026-05-06 14:37 36.83726 30.81182 3218 ft 209 kts 164°
2026-05-06 14:37 36.82264 30.81532 4022 ft 219 kts 175°
2026-05-06 14:38 36.80661 30.81596 4587 ft 243 kts 178°
2026-05-06 14:38 36.78907 30.81565 5182 ft 258 kts 189°
2026-05-06 14:38 36.77180 30.81091 6279 ft 251 kts 194°
2026-05-06 14:38 36.76056 30.80770 6892 ft 251 kts 192°
2026-05-06 14:39 36.73719 30.80369 7996 ft 256 kts 185°
2026-05-06 14:39 36.72532 30.80293 8533 ft 258 kts 182°
2026-05-06 14:39 36.70723 30.80278 9343 ft 262 kts 180°
2026-05-06 14:39 36.68887 30.80324 10098 ft 265 kts 180°
2026-05-06 14:40 36.67031 30.80390 10767 ft 270 kts 180°
2026-05-06 14:40 36.65140 30.80459 11444 ft 273 kts 180°
2026-05-06 14:40 36.63228 30.80525 12108 ft 277 kts 180°
2026-05-06 14:40 36.61292 30.80589 12768 ft 281 kts 180°
2026-05-06 14:41 36.59324 30.80651 13439 ft 284 kts 180°
2026-05-06 14:41 36.57337 30.80713 14073 ft 287 kts 180°
2026-05-06 14:41 36.55327 30.80775 14661 ft 290 kts 181°
2026-05-06 14:41 36.53299 30.80839 15253 ft 293 kts 181°
2026-05-06 14:42 36.51245 30.80903 15823 ft 297 kts 181°
2026-05-06 14:42 36.49175 30.80967 16403 ft 300 kts 181°
2026-05-06 14:42 36.47078 30.81032 16960 ft 303 kts 182°
2026-05-06 14:42 36.44960 30.81098 17524 ft 306 kts 182°
2026-05-06 14:43 36.42825 30.81164 18072 ft 309 kts 182°
2026-05-06 14:43 36.40666 30.81232 18576 ft 312 kts 182°
2026-05-06 14:43 36.38490 30.81303 19048 ft 314 kts 182°
2026-05-06 14:43 36.36293 30.81378 19509 ft 317 kts 182°
2026-05-06 14:44 36.34076 30.81453 19965 ft 320 kts 182°
2026-05-06 14:44 36.31851 30.81528 20412 ft 322 kts 182°
2026-05-06 14:44 36.29595 30.81603 20852 ft 325 kts 183°
2026-05-06 14:45 36.25038 30.81755 21696 ft 330 kts 183°
2026-05-06 14:45 36.22735 30.81832 22101 ft 333 kts 183°
2026-05-06 14:45 36.20412 30.81910 22496 ft 335 kts 183°
2026-05-06 14:45 36.18068 30.81988 22856 ft 340 kts 183°
2026-05-06 14:46 36.15654 30.82066 22969 ft 353 kts 183°
2026-05-06 14:46 36.13155 30.82145 23056 ft 367 kts 183°
2026-05-06 14:46 36.10548 30.82228 23063 ft 383 kts 183°
2026-05-06 14:46 36.07822 30.82317 23057 ft 400 kts 182°
2026-05-06 14:47 36.04978 30.82412 23058 ft 417 kts 182°
2026-05-06 14:47 36.02020 30.82526 23060 ft 434 kts 181°
2026-05-06 14:47 35.98950 30.82707 23059 ft 450 kts 181°
2026-05-06 14:47 35.95762 30.82917 23059 ft 466 kts 180°
2026-05-06 14:48 35.92469 30.83133 23058 ft 481 kts 180°
2026-05-06 14:48 35.89073 30.83349 23058 ft 496 kts 180°
2026-05-06 14:48 35.85595 30.83564 23060 ft 509 kts 180°
2026-05-06 14:48 35.81998 30.83782 23060 ft 522 kts 180°
2026-05-06 14:49 35.78342 30.84004 23060 ft 531 kts 180°
2026-05-06 14:49 35.74630 30.84229 23103 ft 536 kts 180°
2026-05-06 14:49 35.70937 30.84460 23818 ft 527 kts 180°
2026-05-06 14:49 35.67287 30.84697 24284 ft 524 kts 180°
2026-05-06 14:50 35.63643 30.84939 24606 ft 524 kts 180°
2026-05-06 14:50 35.60005 30.85186 24913 ft 524 kts 180°
2026-05-06 14:50 35.56360 30.85439 25220 ft 524 kts 180°
2026-05-06 14:50 35.52729 30.85697 25524 ft 521 kts 180°
2026-05-06 14:51 35.49115 30.85960 25828 ft 519 kts 180°
2026-05-06 14:51 35.45570 30.86225 26134 ft 517 kts 180°
2026-05-06 14:51 35.41987 30.86498 26447 ft 515 kts 180°
2026-05-06 14:51 35.38415 30.86776 26755 ft 513 kts 180°
2026-05-06 14:52 35.34850 30.86955 26923 ft 512 kts 186°
2026-05-06 14:52 35.31298 30.86739 26909 ft 515 kts 188°
2026-05-06 14:52 35.27699 30.86506 26879 ft 519 kts 186°
2026-05-06 14:52 35.24090 30.86410 27199 ft 515 kts 185°
2026-05-06 14:53 35.20565 30.86435 28168 ft 498 kts 184°
2026-05-06 14:53 35.17169 30.86518 29305 ft 479 kts 184°
2026-05-06 14:53 35.13900 30.86623 30410 ft 461 kts 184°
2026-05-06 14:53 35.10766 30.86733 31424 ft 440 kts 185°
2026-05-06 14:54 35.07777 30.86841 32385 ft 421 kts 186°
2026-05-06 14:54 35.04862 30.86937 32689 ft 420 kts 186°
2026-05-06 14:54 35.01927 30.87023 32742 ft 424 kts 186°
2026-05-06 14:54 34.98975 30.87112 32879 ft 425 kts 186°
2026-05-06 14:55 34.96021 30.87205 33026 ft 426 kts 186°
2026-05-06 14:55 34.93046 30.87302 33146 ft 427 kts 186°
2026-05-06 14:55 34.90069 30.87400 33295 ft 428 kts 186°
2026-05-06 14:55 34.87087 30.87499 33420 ft 429 kts 186°
2026-05-06 14:56 34.84094 30.87598 33549 ft 431 kts 186°
2026-05-06 14:56 34.81095 30.87698 33669 ft 432 kts 186°
2026-05-06 14:56 34.78091 30.87797 33791 ft 433 kts 186°
2026-05-06 14:56 34.75076 30.87897 33923 ft 434 kts 186°
2026-05-06 14:57 34.72052 30.87997 34037 ft 435 kts 186°
2026-05-06 14:57 34.65987 30.88197 34262 ft 436 kts 186°
2026-05-06 14:57 34.62940 30.88658 34340 ft 449 kts 171°
2026-05-06 14:58 34.59986 30.90031 34396 ft 462 kts 155°
2026-05-06 14:58 34.54762 30.94717 34583 ft 470 kts 143°
2026-05-06 14:58 34.52252 30.97253 34698 ft 470 kts 144°
2026-05-06 14:59 34.49727 30.99775 34809 ft 470 kts 144°
2026-05-06 14:59 34.47186 31.02269 34920 ft 470 kts 145°
2026-05-06 14:59 34.44633 31.04743 35020 ft 470 kts 145°
2026-05-06 15:00 34.39480 31.09692 35073 ft 475 kts 145°
2026-05-06 15:00 34.34253 31.14695 35074 ft 482 kts 145°
2026-05-06 15:01 34.28959 31.19757 35070 ft 489 kts 145°
2026-05-06 15:01 34.23582 31.24891 35071 ft 496 kts 145°
2026-05-06 15:02 34.18164 31.30056 35073 ft 503 kts 145°
2026-05-06 15:02 34.12635 31.35317 35075 ft 510 kts 145°
2026-05-06 15:03 34.07031 31.40641 35071 ft 516 kts 145°
2026-05-06 15:03 34.01357 31.46021 35078 ft 522 kts 145°
2026-05-06 15:04 33.95620 31.51452 35077 ft 526 kts 145°
2026-05-06 15:04 33.89854 31.56902 35078 ft 528 kts 146°
2026-05-06 15:05 33.84065 31.62363 35081 ft 530 kts 146°
2026-05-06 15:05 33.77855 31.66952 35079 ft 520 kts 161°
2026-05-06 15:06 33.71072 31.69711 35080 ft 514 kts 169°
2026-05-06 15:06 33.64220 31.72182 35079 ft 514 kts 169°
2026-05-06 15:07 33.57363 31.74667 35076 ft 514 kts 169°
2026-05-06 15:07 33.50508 31.77148 35079 ft 514 kts 169°
2026-05-06 15:08 33.43655 31.79623 35078 ft 514 kts 169°
2026-05-06 15:08 33.36804 31.82093 35077 ft 514 kts 169°
2026-05-06 15:09 33.29959 31.84556 35080 ft 514 kts 169°
2026-05-06 15:09 33.23113 31.87017 35078 ft 513 kts 169°
2026-05-06 15:10 33.16275 31.89469 35083 ft 513 kts 169°
2026-05-06 15:10 33.09479 31.91903 35077 ft 513 kts 168°
2026-05-06 15:11 33.02600 31.94363 35080 ft 513 kts 168°
2026-05-06 15:11 32.95817 31.96785 35082 ft 512 kts 168°
2026-05-06 15:12 32.88996 31.99216 35081 ft 512 kts 168°
2026-05-06 15:12 32.82176 32.01643 35078 ft 511 kts 168°
2026-05-06 15:13 32.75365 32.04063 35080 ft 510 kts 168°
2026-05-06 15:13 32.68561 32.06477 35083 ft 510 kts 168°
2026-05-06 15:14 32.61974 32.09724 35083 ft 518 kts 154°
2026-05-06 15:14 32.55983 32.14550 35081 ft 522 kts 148°
2026-05-06 15:15 32.50095 32.19574 35083 ft 521 kts 148°
2026-05-06 15:15 32.44201 32.24573 35080 ft 521 kts 148°
2026-05-06 15:16 32.38312 32.29556 35081 ft 520 kts 148°
2026-05-06 15:16 32.32428 32.34527 35080 ft 519 kts 148°
2026-05-06 15:17 32.26543 32.39492 35081 ft 519 kts 148°
2026-05-06 15:17 32.20667 32.44441 35082 ft 518 kts 148°
2026-05-06 15:18 32.14801 32.49373 35081 ft 518 kts 148°
2026-05-06 15:18 32.08932 32.54296 35079 ft 517 kts 149°
2026-05-06 15:19 32.03071 32.59204 35083 ft 516 kts 149°
2026-05-06 15:19 31.97222 32.64094 35083 ft 515 kts 149°
2026-05-06 15:20 31.91373 32.68977 35087 ft 515 kts 149°
2026-05-06 15:20 31.85529 32.73848 35090 ft 514 kts 149°
2026-05-06 15:21 31.79689 32.78708 35095 ft 514 kts 149°
2026-05-06 15:21 31.73856 32.83554 35093 ft 514 kts 149°
2026-05-06 15:22 31.68016 32.88399 35101 ft 513 kts 149°
2026-05-06 15:22 31.62181 32.93231 35099 ft 513 kts 149°
2026-05-06 15:23 31.56385 32.98024 35100 ft 513 kts 149°
2026-05-06 15:23 31.50555 33.02837 35104 ft 513 kts 149°
2026-05-06 15:24 31.44725 33.07643 35106 ft 512 kts 149°
2026-05-06 15:24 31.38867 33.12389 35105 ft 510 kts 154°
2026-05-06 15:25 31.32554 33.15912 35108 ft 498 kts 167°
2026-05-06 15:25 31.27088 33.18019 35105 ft 498 kts 167°
2026-05-06 15:26 31.20513 33.20575 35115 ft 498 kts 167°
2026-05-06 15:26 31.13944 33.23132 35110 ft 497 kts 167°
2026-05-06 15:27 31.07379 33.25684 35102 ft 497 kts 167°
2026-05-06 15:27 31.00818 33.28229 35115 ft 497 kts 167°
2026-05-06 15:28 30.94258 33.30770 35104 ft 497 kts 167°
2026-05-06 15:28 30.87695 33.33309 35102 ft 497 kts 167°
2026-05-06 15:29 30.81134 33.35844 35095 ft 496 kts 167°
2026-05-06 15:29 30.74574 33.38374 35097 ft 496 kts 167°
2026-05-06 15:30 30.68019 33.40899 35091 ft 496 kts 167°
2026-05-06 15:30 30.61462 33.43421 35090 ft 496 kts 167°
2026-05-06 15:31 30.54911 33.45937 35086 ft 496 kts 167°
2026-05-06 15:31 30.48365 33.48447 35084 ft 496 kts 167°
2026-05-06 15:32 30.38543 33.52209 35073 ft 495 kts 167°
2026-05-06 15:32 30.31999 33.54710 35070 ft 495 kts 167°
2026-05-06 15:33 30.25465 33.57203 35069 ft 495 kts 167°
2026-05-06 15:33 30.18925 33.59695 35057 ft 495 kts 167°
2026-05-06 15:34 30.12391 33.62181 35060 ft 495 kts 167°
2026-05-06 15:34 30.05855 33.64665 35058 ft 494 kts 167°
2026-05-06 15:35 29.99318 33.67146 35054 ft 494 kts 167°
2026-05-06 15:35 29.92781 33.69623 35050 ft 495 kts 167°
2026-05-06 15:36 29.86243 33.72097 35045 ft 495 kts 167°
2026-05-06 15:36 29.79700 33.74570 35046 ft 495 kts 168°
2026-05-06 15:37 29.73159 33.77038 35040 ft 495 kts 168°
2026-05-06 15:37 29.66612 33.79505 35041 ft 495 kts 168°
2026-05-06 15:38 29.60063 33.81970 35037 ft 495 kts 168°
2026-05-06 15:38 29.53511 33.84433 35036 ft 495 kts 168°
2026-05-06 15:39 29.46958 33.86892 35034 ft 496 kts 168°
2026-05-06 15:39 29.40397 33.89352 35035 ft 496 kts 168°
2026-05-06 15:40 29.33885 33.91790 35034 ft 496 kts 168°
2026-05-06 15:40 29.27323 33.94243 35031 ft 496 kts 168°
2026-05-06 15:41 29.20752 33.96697 35028 ft 496 kts 168°
2026-05-06 15:41 29.14187 33.99148 35025 ft 496 kts 168°
2026-05-06 15:42 29.07618 34.01597 35025 ft 497 kts 168°
2026-05-06 15:42 29.01050 34.04043 35023 ft 496 kts 168°
2026-05-06 15:43 28.94477 34.06486 35021 ft 497 kts 168°
2026-05-06 15:43 28.87907 34.08925 35013 ft 497 kts 168°
2026-05-06 15:44 28.81330 34.11365 35015 ft 497 kts 168°
2026-05-06 15:44 28.74760 34.13798 35007 ft 496 kts 168°
2026-05-06 15:45 28.68186 34.16229 35003 ft 497 kts 168°
2026-05-06 15:45 28.61609 34.18659 35006 ft 497 kts 168°
2026-05-06 15:46 28.55021 34.21090 34994 ft 497 kts 168°
2026-05-06 15:46 28.48431 34.23517 34991 ft 498 kts 168°
2026-05-06 15:47 28.41852 34.25938 34984 ft 497 kts 168°
2026-05-06 15:47 28.35279 34.28354 34979 ft 497 kts 168°
2026-05-06 15:48 28.28694 34.30769 34967 ft 497 kts 168°
2026-05-06 15:48 28.22106 34.33183 34961 ft 498 kts 168°
2026-05-06 15:49 28.15516 34.35595 34951 ft 498 kts 168°
2026-05-06 15:49 28.08927 34.38004 34944 ft 498 kts 168°
2026-05-06 15:50 28.02388 34.40616 34946 ft 503 kts 160°
2026-05-06 15:50 27.96579 34.45090 34948 ft 518 kts 141°
2026-05-06 15:51 27.91552 34.50956 34946 ft 520 kts 139°
2026-05-06 15:51 27.86523 34.56830 34942 ft 520 kts 139°
2026-05-06 15:52 27.81485 34.62694 34938 ft 520 kts 139°
2026-05-06 15:52 27.76446 34.68552 34930 ft 520 kts 139°
2026-05-06 15:53 27.71409 34.74401 34924 ft 520 kts 139°
2026-05-06 15:53 27.66369 34.80245 34922 ft 520 kts 139°
2026-05-06 15:54 27.61327 34.86082 34919 ft 519 kts 139°
2026-05-06 15:54 27.56278 34.91919 34917 ft 519 kts 139°
2026-05-06 15:55 27.51236 34.97740 34915 ft 519 kts 139°
2026-05-06 15:55 27.46194 35.03554 34912 ft 519 kts 139°
2026-05-06 15:56 27.41148 35.09363 34915 ft 519 kts 139°
2026-05-06 15:56 27.36103 35.15165 34918 ft 518 kts 139°
2026-05-06 15:57 27.31058 35.20957 34921 ft 518 kts 140°
2026-05-06 15:57 27.26012 35.26743 34923 ft 518 kts 140°
2026-05-06 15:58 27.20965 35.32523 34927 ft 518 kts 140°
2026-05-06 15:58 27.15949 35.38258 34920 ft 518 kts 140°
2026-05-06 15:59 27.10902 35.44022 34918 ft 517 kts 140°
2026-05-06 15:59 27.05854 35.49778 34920 ft 517 kts 140°
2026-05-06 16:00 27.00806 35.55527 34923 ft 517 kts 140°
2026-05-06 16:00 26.95757 35.61269 34921 ft 517 kts 140°
2026-05-06 16:01 26.90708 35.67003 34919 ft 517 kts 140°
2026-05-06 16:01 26.85656 35.72734 34916 ft 517 kts 140°
2026-05-06 16:02 26.80602 35.78457 34918 ft 516 kts 140°
2026-05-06 16:02 26.75550 35.84172 34919 ft 516 kts 140°
2026-05-06 16:03 26.70499 35.89879 34914 ft 516 kts 141°
2026-05-06 16:03 26.65449 35.95578 34917 ft 516 kts 141°
2026-05-06 16:04 26.60397 36.01270 34912 ft 516 kts 141°
2026-05-06 16:04 26.55341 36.06958 34915 ft 515 kts 141°
2026-05-06 16:05 26.50285 36.12639 34914 ft 515 kts 141°
2026-05-06 16:05 26.45232 36.18310 34916 ft 515 kts 141°
2026-05-06 16:06 26.40180 36.23970 34906 ft 515 kts 141°
2026-05-06 16:06 26.35126 36.29626 34900 ft 514 kts 141°
2026-05-06 16:07 26.30075 36.35272 34896 ft 514 kts 142°
2026-05-06 16:07 26.25023 36.40911 34890 ft 514 kts 142°
2026-05-06 16:08 26.20460 36.47032 34890 ft 528 kts 125°
2026-05-06 16:08 26.18902 36.50771 34891 ft 537 kts 114°
2026-05-06 16:08 26.17963 36.54816 34893 ft 544 kts 102°
2026-05-06 16:09 26.17683 36.59037 34893 ft 549 kts 91°
2026-05-06 16:09 26.18080 36.63269 34893 ft 552 kts 79°
2026-05-06 16:09 26.19815 36.71615 34906 ft 553 kts 79°
2026-05-06 16:10 26.21050 36.80062 34908 ft 552 kts 84°
2026-05-06 16:10 26.21938 36.88556 34918 ft 553 kts 86°
2026-05-06 16:11 26.22763 36.97063 34921 ft 552 kts 86°
2026-05-06 16:11 26.23589 37.05569 34930 ft 553 kts 86°
2026-05-06 16:12 26.24281 37.12703 34933 ft 553 kts 86°
2026-05-06 16:12 26.25104 37.21216 34938 ft 553 kts 86°
2026-05-06 16:13 26.25923 37.29740 34942 ft 554 kts 86°
2026-05-06 16:13 26.26732 37.38214 34946 ft 554 kts 86°
2026-05-06 16:14 26.27547 37.46812 34944 ft 554 kts 86°
2026-05-06 16:14 26.28347 37.55304 34939 ft 555 kts 86°
2026-05-06 16:15 26.29148 37.63863 34942 ft 555 kts 86°
2026-05-06 16:15 26.29943 37.72418 34936 ft 555 kts 86°
2026-05-06 16:16 26.30734 37.80973 34925 ft 555 kts 86°
2026-05-06 16:16 26.31521 37.89539 34917 ft 556 kts 87°
2026-05-06 16:17 26.32303 37.98111 34918 ft 556 kts 87°
2026-05-06 16:17 26.33081 38.06691 34914 ft 556 kts 87°
2026-05-06 16:18 26.33853 38.15269 34916 ft 556 kts 87°
2026-05-06 16:18 26.34621 38.23850 34916 ft 556 kts 87°
2026-05-06 16:19 26.35381 38.32429 34921 ft 556 kts 87°
2026-05-06 16:19 26.36135 38.41004 34929 ft 556 kts 87°
2026-05-06 16:20 26.36885 38.49587 34939 ft 556 kts 88°
2026-05-06 16:20 26.37631 38.58175 34945 ft 557 kts 88°
2026-05-06 16:21 26.38371 38.66769 34943 ft 557 kts 88°
2026-05-06 16:21 26.39106 38.75358 34960 ft 556 kts 88°
2026-05-06 16:22 26.39837 38.83949 34961 ft 557 kts 88°
2026-05-06 16:22 26.40563 38.92553 34959 ft 557 kts 88°
2026-05-06 16:23 26.41284 39.01169 34962 ft 558 kts 88°
2026-05-06 16:23 26.42002 39.09796 34957 ft 559 kts 88°
2026-05-06 16:24 26.42710 39.18371 34957 ft 559 kts 88°
2026-05-06 16:24 26.43418 39.27011 34955 ft 559 kts 88°
2026-05-06 16:25 26.43923 39.35653 34958 ft 558 kts 91°
2026-05-06 16:25 26.44309 39.44306 34959 ft 558 kts 91°
2026-05-06 16:26 26.44724 39.52958 34952 ft 559 kts 91°
2026-05-06 16:26 26.45149 39.61577 34958 ft 544 kts 91°
2026-05-06 16:27 26.45551 39.69854 34958 ft 529 kts 91°
2026-05-06 16:27 26.45934 39.77986 34964 ft 520 kts 91°
2026-05-06 16:28 26.46311 39.85978 34966 ft 512 kts 91°
2026-05-06 16:28 26.46682 39.93854 34963 ft 504 kts 91°
2026-05-06 16:29 26.47044 40.01613 34964 ft 496 kts 92°
2026-05-06 16:29 26.47395 40.09244 34955 ft 489 kts 92°
2026-05-06 16:30 26.47681 40.15507 34961 ft 483 kts 92°
2026-05-06 16:30 26.48072 40.24186 34960 ft 475 kts 92°
2026-05-06 16:31 26.48396 40.31486 34948 ft 467 kts 92°
2026-05-06 16:31 26.48712 40.38666 34950 ft 459 kts 92°
2026-05-06 16:32 26.49018 40.45723 34951 ft 451 kts 92°
2026-05-06 16:32 26.49321 40.52762 34839 ft 459 kts 92°
2026-05-06 16:33 26.49602 40.59949 34758 ft 468 kts 93°
2026-05-06 16:34 26.49851 40.71024 34677 ft 483 kts 94°
2026-05-06 16:34 26.50096 40.78568 34899 ft 489 kts 90°
2026-05-06 16:35 26.50631 40.86205 34891 ft 497 kts 91°
2026-05-06 16:35 26.51016 40.93972 34885 ft 506 kts 92°
2026-05-06 16:36 26.51331 41.01886 34884 ft 515 kts 92°
2026-05-06 16:36 26.51052 41.09868 34883 ft 518 kts 101°
2026-05-06 16:37 26.50477 41.17955 34878 ft 527 kts 100°
2026-05-06 16:37 26.49899 41.26176 34881 ft 536 kts 100°
2026-05-06 16:38 26.49305 41.34533 34880 ft 544 kts 100°
2026-05-06 16:38 26.48698 41.43003 34877 ft 550 kts 100°
2026-05-06 16:39 26.48080 41.51552 34869 ft 554 kts 100°
2026-05-06 16:39 26.47453 41.60146 34868 ft 557 kts 100°
2026-05-06 16:40 26.46818 41.68774 34867 ft 558 kts 100°
2026-05-06 16:40 26.46177 41.77414 34867 ft 559 kts 100°
2026-05-06 16:41 26.45529 41.86066 34860 ft 560 kts 100°
2026-05-06 16:41 26.44876 41.94720 34873 ft 560 kts 101°
2026-05-06 16:42 26.44222 42.03325 34871 ft 560 kts 101°
2026-05-06 16:42 26.43558 42.11987 34870 ft 561 kts 101°
2026-05-06 16:43 26.42888 42.20657 34877 ft 561 kts 101°
2026-05-06 16:43 26.42208 42.29388 34878 ft 561 kts 101°
2026-05-06 16:44 26.41531 42.38007 34882 ft 561 kts 101°
2026-05-06 16:44 26.40846 42.46677 34883 ft 561 kts 101°
2026-05-06 16:45 26.40155 42.55345 34880 ft 561 kts 101°
2026-05-06 16:45 26.39459 42.64014 34883 ft 561 kts 101°
2026-05-06 16:46 26.38757 42.72680 34885 ft 561 kts 101°
2026-05-06 16:46 26.38052 42.81340 34881 ft 561 kts 101°
2026-05-06 16:47 26.37340 42.89996 34887 ft 560 kts 101°
2026-05-06 16:47 26.36625 42.98643 34886 ft 560 kts 101°
2026-05-06 16:48 26.35905 43.07290 34890 ft 560 kts 101°
2026-05-06 16:48 26.35177 43.15935 34887 ft 560 kts 101°
2026-05-06 16:49 26.34444 43.24579 34887 ft 559 kts 101°
2026-05-06 16:49 26.33708 43.33206 34886 ft 559 kts 101°
2026-05-06 16:50 26.32962 43.41902 34886 ft 559 kts 101°
2026-05-06 16:50 26.32220 43.50475 34889 ft 559 kts 101°
2026-05-06 16:51 26.31469 43.59104 34886 ft 559 kts 101°
2026-05-06 16:51 26.30712 43.67736 34889 ft 559 kts 101°
2026-05-06 16:52 26.29951 43.76364 34890 ft 560 kts 101°
2026-05-06 16:52 26.29864 43.85091 34891 ft 565 kts 94°
2026-05-06 16:53 26.29946 43.93850 34886 ft 565 kts 94°
2026-05-06 16:53 26.30016 44.02605 34888 ft 565 kts 94°
2026-05-06 16:54 26.30080 44.11358 34894 ft 565 kts 94°
2026-05-06 16:54 26.30138 44.20106 34896 ft 565 kts 94°
2026-05-06 16:55 26.30191 44.28855 34899 ft 565 kts 94°
2026-05-06 16:55 26.30231 44.36129 34906 ft 565 kts 94°
2026-05-06 16:56 26.30274 44.44885 34911 ft 565 kts 94°
2026-05-06 16:56 26.30312 44.53643 34915 ft 565 kts 94°
2026-05-06 16:57 26.30346 44.62401 34915 ft 565 kts 94°
2026-05-06 16:57 26.30375 44.71157 34915 ft 565 kts 94°
2026-05-06 16:58 26.30398 44.79911 34927 ft 565 kts 94°
2026-05-06 16:58 26.30415 44.88660 34926 ft 565 kts 94°
2026-05-06 16:59 26.30427 44.97418 34929 ft 565 kts 94°
2026-05-06 16:59 26.30431 45.06171 34929 ft 565 kts 94°
2026-05-06 17:00 26.30431 45.14917 34928 ft 565 kts 94°
2026-05-06 17:00 26.30425 45.23671 34933 ft 565 kts 94°
2026-05-06 17:01 26.30413 45.32417 34935 ft 565 kts 94°
2026-05-06 17:01 26.30397 45.41119 34936 ft 565 kts 94°
2026-05-06 17:02 26.30375 45.49874 34928 ft 565 kts 94°
2026-05-06 17:02 26.30349 45.58637 34929 ft 566 kts 94°
2026-05-06 17:03 26.30317 45.67403 34928 ft 566 kts 94°
2026-05-06 17:03 26.30280 45.76169 34922 ft 566 kts 94°
2026-05-06 17:04 26.30237 45.84938 34917 ft 566 kts 94°
2026-05-06 17:04 26.30188 45.93701 34926 ft 566 kts 94°
2026-05-06 17:05 26.30135 46.02469 34914 ft 565 kts 94°
2026-05-06 17:05 26.30076 46.11230 34914 ft 565 kts 94°
2026-05-06 17:06 26.30012 46.19992 34918 ft 565 kts 94°
2026-05-06 17:06 26.29943 46.28731 34916 ft 564 kts 94°
2026-05-06 17:07 26.29870 46.37478 34912 ft 564 kts 94°
2026-05-06 17:07 26.29791 46.46211 34915 ft 563 kts 94°
2026-05-06 17:08 26.29705 46.54933 34912 ft 563 kts 94°
2026-05-06 17:08 26.29603 46.63659 34912 ft 563 kts 94°
2026-05-06 17:09 26.29497 46.72378 34911 ft 563 kts 94°
2026-05-06 17:09 26.29388 46.81030 34911 ft 562 kts 94°
2026-05-06 17:10 26.29272 46.89746 34905 ft 562 kts 94°
2026-05-06 17:10 26.29151 46.98449 34907 ft 562 kts 94°
2026-05-06 17:11 26.29025 47.07155 34903 ft 561 kts 94°
2026-05-06 17:11 26.28894 47.15848 34902 ft 561 kts 95°
2026-05-06 17:12 26.28758 47.24550 34901 ft 562 kts 95°
2026-05-06 17:12 26.28616 47.33247 34895 ft 561 kts 95°
2026-05-06 17:13 26.28470 47.41935 34898 ft 561 kts 95°
2026-05-06 17:13 26.28318 47.50626 34890 ft 561 kts 95°
2026-05-06 17:14 26.28160 47.59312 34890 ft 561 kts 95°
2026-05-06 17:14 26.28106 47.68007 34888 ft 563 kts 89°
2026-05-06 17:15 26.29454 47.76616 34885 ft 566 kts 78°
2026-05-06 17:15 26.31213 47.85174 34880 ft 566 kts 79°
2026-05-06 17:16 26.32956 47.93735 34881 ft 567 kts 79°
2026-05-06 17:16 26.34695 48.02302 34876 ft 567 kts 79°
2026-05-06 17:17 26.36419 48.10822 34871 ft 567 kts 79°
2026-05-06 17:17 26.38153 48.19400 34878 ft 567 kts 79°
2026-05-06 17:18 26.39881 48.27980 34833 ft 568 kts 79°
2026-05-06 17:18 26.41587 48.36464 34592 ft 547 kts 79°
2026-05-06 17:18 26.42413 48.40584 34141 ft 542 kts 79°
2026-05-06 17:19 26.43231 48.44684 33429 ft 541 kts 79°
2026-05-06 17:19 26.44047 48.48780 32686 ft 541 kts 78°
2026-05-06 17:19 26.44862 48.52877 31937 ft 541 kts 78°
2026-05-06 17:19 26.45677 48.56977 31182 ft 541 kts 78°
2026-05-06 17:20 26.46491 48.61078 30440 ft 541 kts 78°
2026-05-06 17:20 26.47254 48.65190 29659 ft 541 kts 82°
2026-05-06 17:20 26.47629 48.69342 28867 ft 537 kts 89°
2026-05-06 17:20 26.47715 48.73502 28090 ft 534 kts 90°
2026-05-06 17:21 26.47806 48.77639 27292 ft 532 kts 90°
2026-05-06 17:21 26.47902 48.81761 26533 ft 529 kts 90°
2026-05-06 17:21 26.47996 48.85809 26284 ft 514 kts 90°
2026-05-06 17:21 26.48086 48.89747 26108 ft 499 kts 90°
2026-05-06 17:22 26.48171 48.93558 25966 ft 484 kts 90°
2026-05-06 17:22 26.48252 48.97250 25858 ft 468 kts 90°
2026-05-06 17:22 26.48328 49.00819 25834 ft 451 kts 90°
2026-05-06 17:22 26.48400 49.04256 25834 ft 434 kts 90°
2026-05-06 17:23 26.48469 49.07562 25835 ft 418 kts 90°
2026-05-06 17:23 26.48538 49.10739 25831 ft 402 kts 91°
2026-05-06 17:23 26.48603 49.13791 25829 ft 385 kts 92°
2026-05-06 17:23 26.48663 49.16718 25823 ft 369 kts 92°
2026-05-06 17:24 26.48720 49.19520 25824 ft 353 kts 92°
2026-05-06 17:24 26.48772 49.22155 25819 ft 335 kts 92°
2026-05-06 17:24 26.48835 49.24772 25694 ft 344 kts 91°
2026-05-06 17:24 26.48957 49.27472 25823 ft 351 kts 89°
2026-05-06 17:25 26.49147 49.30189 26184 ft 350 kts 88°
2026-05-06 17:25 26.49381 49.32884 26547 ft 348 kts 88°
2026-05-06 17:25 26.49630 49.35644 26365 ft 369 kts 86°
2026-05-06 17:25 26.49926 49.38571 26117 ft 391 kts 85°
2026-05-06 17:26 26.50030 49.41671 25879 ft 407 kts 98°
2026-05-06 17:26 26.49752 49.44864 25868 ft 420 kts 99°
2026-05-06 17:26 26.49506 49.48167 25859 ft 434 kts 96°
2026-05-06 17:26 26.49387 49.51593 25841 ft 449 kts 94°
2026-05-06 17:27 26.49372 49.55128 25817 ft 463 kts 92°
2026-05-06 17:27 26.49414 49.58713 25588 ft 458 kts 91°
2026-05-06 17:27 26.49477 49.62273 24875 ft 461 kts 91°
2026-05-06 17:27 26.49544 49.65864 24095 ft 465 kts 91°
2026-05-06 17:28 26.49610 49.69484 23251 ft 469 kts 90°
2026-05-06 17:28 26.49672 49.73138 22293 ft 472 kts 90°
2026-05-06 17:28 26.49731 49.76815 21317 ft 475 kts 91°
2026-05-06 17:28 26.49607 49.80500 20327 ft 477 kts 95°
2026-05-06 17:29 26.49397 49.84188 19556 ft 474 kts 95°
2026-05-06 17:29 26.49197 49.87833 18938 ft 467 kts 94°
2026-05-06 17:29 26.49001 49.91428 18319 ft 461 kts 94°
2026-05-06 17:29 26.48807 49.94977 17585 ft 456 kts 94°
2026-05-06 17:30 26.48613 49.98493 16876 ft 451 kts 94°
2026-05-06 17:30 26.48420 50.01962 16197 ft 445 kts 95°
2026-05-06 17:30 26.48228 50.05389 15527 ft 440 kts 95°
2026-05-06 17:30 26.48039 50.08753 15118 ft 428 kts 95°
2026-05-06 17:31 26.47855 50.12002 14937 ft 411 kts 95°
2026-05-06 17:31 26.47679 50.15115 14847 ft 393 kts 95°
2026-05-06 17:31 26.47510 50.18088 14842 ft 374 kts 95°
2026-05-06 17:31 26.47348 50.20930 14640 ft 363 kts 95°
2026-05-06 17:32 26.47186 50.23755 13997 ft 367 kts 95°
2026-05-06 17:32 26.47020 50.26615 13206 ft 372 kts 95°
2026-05-06 17:32 26.46851 50.29543 12148 ft 384 kts 95°
2026-05-06 17:32 26.46675 50.32572 11111 ft 396 kts 95°
2026-05-06 17:33 26.46576 50.35637 10504 ft 394 kts 88°
2026-05-06 17:33 26.46914 50.38635 10173 ft 385 kts 78°
2026-05-06 17:33 26.47677 50.41443 9990 ft 372 kts 68°
2026-05-06 17:33 26.48649 50.44055 9881 ft 357 kts 68°
2026-05-06 17:34 26.49558 50.46526 9860 ft 340 kts 68°
2026-05-06 17:34 26.50429 50.48910 9859 ft 324 kts 68°
2026-05-06 17:34 26.51258 50.51179 9859 ft 307 kts 68°
2026-05-06 17:34 26.52045 50.53329 9857 ft 291 kts 68°
2026-05-06 17:35 26.52790 50.55364 9857 ft 275 kts 68°
2026-05-06 17:35 26.53413 50.57311 9765 ft 262 kts 81°
2026-05-06 17:35 26.53339 50.59341 9216 ft 266 kts 110°
2026-05-06 17:36 26.51436 50.62997 8115 ft 278 kts 127°
2026-05-06 17:36 26.50342 50.64742 7928 ft 270 kts 127°
2026-05-06 17:36 26.49296 50.66449 7637 ft 266 kts 126°
2026-05-06 17:36 26.48262 50.68184 6795 ft 273 kts 125°
2026-05-06 17:37 26.47194 50.70009 5639 ft 288 kts 124°
2026-05-06 17:37 26.46125 50.71864 4864 ft 279 kts 124°
2026-05-06 17:37 26.44884 50.73401 4388 ft 256 kts 147°
2026-05-06 17:37 26.43337 50.74167 3936 ft 238 kts 171°
2026-05-06 17:38 26.41717 50.74176 3401 ft 229 kts 188°
2026-05-06 17:38 26.40149 50.73940 3021 ft 229 kts 189°
2026-05-06 17:38 26.38551 50.73715 2855 ft 233 kts 186°
2026-05-06 17:38 26.36879 50.73728 2547 ft 250 kts 170°
2026-05-06 17:39 26.35247 50.74460 2488 ft 256 kts 150°
2026-05-06 17:39 26.33853 50.75631 2500 ft 248 kts 134°
2026-05-06 17:39 26.32737 50.77054 2516 ft 238 kts 129°
2026-05-06 17:39 26.31815 50.78521 2658 ft 222 kts 120°
2026-05-06 17:40 26.31001 50.80010 2835 ft 235 kts 126°
2026-05-06 17:40 26.29935 50.81480 2946 ft 252 kts 133°
2026-05-06 17:40 26.28597 50.82778 2970 ft 247 kts 151°
2026-05-06 17:40 26.27026 50.83389 2983 ft 237 kts 175°
2026-05-06 17:41 26.25410 50.83252 2987 ft 231 kts 198°
2026-05-06 17:41 26.23965 50.82532 2919 ft 229 kts 213°
2026-05-06 17:41 26.22673 50.81523 2979 ft 231 kts 219°
2026-05-06 17:41 26.21440 50.80407 3034 ft 225 kts 220°
2026-05-06 17:42 26.20436 50.79135 3097 ft 219 kts 246°
2026-05-06 17:42 26.20202 50.77482 2940 ft 219 kts 276°
2026-05-06 17:42 26.20424 50.75796 2419 ft 225 kts 283°
2026-05-06 17:42 26.20856 50.74081 2278 ft 242 kts 291°
2026-05-06 17:43 26.21636 50.72380 2047 ft 234 kts 304°
2026-05-06 17:43 26.22262 50.71445 1634 ft 223 kts 309°
2026-05-06 17:43 26.23340 50.69665 1069 ft 191 kts 307°
2026-05-06 17:43 26.24027 50.68548 886 ft 165 kts 309°
2026-05-06 17:44 26.24434 50.67868 763 ft 154 kts 307°
2026-05-06 17:44 26.25166 50.66596 420 ft 142 kts 307°
2026-05-06 17:44 26.25679 50.65712 242 ft 129 kts 309°
2026-05-06 17:44 26.26019 50.65157 135 ft 127 kts 307°
2026-05-06 17:45 26.26658 50.64093 20 ft 114 kts 305°
2026-05-06 17:45 26.26936 50.63627 15 ft 99 kts 303°
2026-05-06 17:45 26.27174 50.63202 15 ft 16 kts 302°
2026-05-06 17:45 26.27214 50.63128 16 ft 25 kts 298°
2026-05-06 17:46 26.27247 50.62951 16 ft 42 kts 276°
2026-05-06 17:46 26.27186 50.62844 19 ft 24 kts 154°
2026-05-06 17:46 26.27154 50.62889 19 ft 8 kts 129°
2026-05-06 17:46 26.27098 50.62903 18 ft 9 kts 188°
2026-05-06 17:47 26.27029 50.62893 17 ft 11 kts 149°
2026-05-06 17:47 26.26974 50.62972 17 ft 15 kts 123°
2026-05-06 17:47 26.26911 50.63080 16 ft 18 kts 123°
2026-05-06 17:47 26.26832 50.63205 17 ft 21 kts 126°
2026-05-06 17:48 26.26735 50.63343 16 ft 24 kts 137°
2026-05-06 17:48 26.26634 50.63382 17 ft 15 kts 206°
2026-05-06 17:48 26.26617 50.63372 18 ft 0 kts 207°